TimeCDT,TemperatureF,Dew PointF,Humidity,Sea Level PressureIn,VisibilityMPH,Wind Direction,Wind SpeedMPH,Gust SpeedMPH,PrecipitationIn,Events,Conditions,WindDirDegrees,DateUTC
12:13 AM,41.0,33.8,76,29.71,10.0,Calm,Calm,-,N/A,,Overcast,0,2012-10-08 05:13:00
12:34 AM,41.0,35.6,81,29.70,10.0,ENE,3.5,-,N/A,,Overcast,70,2012-10-08 05:34:00
12:53 AM,41.0,33.8,76,29.70,10.0,East,3.5,-,N/A,,Overcast,80,2012-10-08 05:53:00
1:13 AM,41.0,33.8,76,29.70,10.0,East,3.5,-,N/A,,Overcast,90,2012-10-08 06:13:00
1:34 AM,41.0,33.8,76,29.69,10.0,ENE,3.5,-,N/A,,Overcast,70,2012-10-08 06:34:00
1:53 AM,41.0,33.8,76,29.69,10.0,ENE,3.5,-,N/A,,Mostly Cloudy,70,2012-10-08 06:53:00
2:13 AM,41.0,35.6,81,29.69,10.0,East,4.6,-,N/A,,Overcast,90,2012-10-08 07:13:00
2:34 AM,41.0,35.6,81,29.68,10.0,East,3.5,-,N/A,,Overcast,80,2012-10-08 07:34:00
2:53 AM,41.0,35.6,81,29.67,10.0,East,4.6,-,N/A,,Scattered Clouds,90,2012-10-08 07:53:00
3:14 AM,41.0,35.6,81,29.66,10.0,East,4.6,-,N/A,,Clear,90,2012-10-08 08:14:00
3:33 AM,41.0,35.6,81,29.65,10.0,East,5.8,-,N/A,,Clear,90,2012-10-08 08:33:00
3:53 AM,41.0,35.6,81,29.65,10.0,East,3.5,-,N/A,,Mostly Cloudy,80,2012-10-08 08:53:00
4:14 AM,41.0,35.6,81,29.64,10.0,East,3.5,-,N/A,,Overcast,90,2012-10-08 09:14:00
4:33 AM,39.2,35.6,87,29.64,10.0,East,3.5,-,N/A,,Overcast,80,2012-10-08 09:33:00
4:54 AM,39.2,35.6,87,29.63,10.0,East,4.6,-,N/A,,Mostly Cloudy,80,2012-10-08 09:54:00
5:13 AM,39.2,35.6,87,29.62,10.0,Calm,Calm,-,N/A,,Mostly Cloudy,0,2012-10-08 10:13:00
5:34 AM,41.0,35.6,81,29.61,10.0,East,4.6,-,N/A,,Overcast,100,2012-10-08 10:34:00
5:53 AM,41.0,35.6,81,29.61,10.0,East,3.5,-,N/A,,Mostly Cloudy,100,2012-10-08 10:53:00
6:14 AM,41.0,35.6,81,29.60,10.0,ESE,4.6,-,N/A,,Mostly Cloudy,110,2012-10-08 11:14:00
6:33 AM,41.0,35.6,81,29.61,10.0,East,3.5,-,N/A,,Mostly Cloudy,100,2012-10-08 11:33:00
6:54 AM,41.0,37.4,87,29.60,10.0,Calm,Calm,-,N/A,,Overcast,0,2012-10-08 11:54:00
7:13 AM,41.0,37.4,87,29.60,10.0,Calm,Calm,-,N/A,,Mostly Cloudy,0,2012-10-08 12:13:00
7:34 AM,41.0,37.4,87,29.59,10.0,Calm,Calm,-,N/A,,Overcast,0,2012-10-08 12:34:00
7:53 AM,42.8,35.6,76,29.59,10.0,Calm,Calm,-,N/A,,Overcast,0,2012-10-08 12:53:00
8:14 AM,42.8,35.6,76,29.58,10.0,East,3.5,-,N/A,,Overcast,100,2012-10-08 13:14:00
8:33 AM,42.8,35.6,76,29.58,10.0,ESE,3.5,-,N/A,,Overcast,110,2012-10-08 13:33:00
8:54 AM,42.8,35.6,76,29.58,10.0,Calm,Calm,-,N/A,,Overcast,0,2012-10-08 13:54:00
9:13 AM,42.8,35.6,76,29.58,10.0,ESE,4.6,-,N/A,Rain,Light Rain,110,2012-10-08 14:13:00
9:33 AM,42.8,37.4,81,29.57,10.0,Calm,Calm,-,N/A,,Drizzle,0,2012-10-08 14:33:00
9:54 AM,41.0,37.4,87,29.57,7.0,Calm,Calm,-,N/A,,Drizzle,0,2012-10-08 14:54:00
10:13 AM,41.0,37.4,87,29.56,10.0,Calm,Calm,-,N/A,,Drizzle,0,2012-10-08 15:13:00
10:33 AM,41.0,35.6,81,29.56,10.0,East,4.6,-,N/A,,Drizzle,80,2012-10-08 15:33:00
11:13 AM,41.0,35.6,81,29.55,10.0,ENE,3.5,-,0.01,Rain,Light Rain,70,2012-10-08 16:13:00
11:33 AM,39.2,35.6,87,29.54,10.0,ENE,3.5,-,0.01,Rain,Light Rain,60,2012-10-08 16:33:00
11:54 AM,39.2,35.6,87,29.54,10.0,ENE,8.1,-,0.02,Rain,Light Rain,60,2012-10-08 16:54:00
12:13 PM,39.2,35.6,87,29.53,10.0,ENE,6.9,-,0.02,Rain,Light Rain,60,2012-10-08 17:13:00
12:33 PM,39.2,35.6,87,29.53,10.0,ENE,8.1,-,0.03,Rain,Light Rain,60,2012-10-08 17:33:00
12:54 PM,39.2,35.6,87,29.52,7.0,ENE,6.9,-,0.06,Rain,Rain,70,2012-10-08 17:54:00
1:33 PM,39.2,35.6,87,29.51,7.0,ENE,5.8,-,0.01,,Drizzle,70,2012-10-08 18:33:00
1:54 PM,39.2,37.4,93,29.51,7.0,ENE,8.1,-,0.02,Rain,Rain,70,2012-10-08 18:54:00
2:13 PM,39.2,37.4,93,29.50,7.0,ENE,5.8,-,0.01,Rain,Rain,60,2012-10-08 19:13:00
2:33 PM,39.2,37.4,93,29.50,10.0,ENE,4.6,-,0.01,,Drizzle,70,2012-10-08 19:33:00
2:54 PM,39.2,37.4,93,29.50,7.0,NE,4.6,-,0.01,,Drizzle,50,2012-10-08 19:54:00
3:13 PM,39.2,37.4,93,29.50,10.0,ENE,4.6,-,0.01,,Drizzle,60,2012-10-08 20:13:00
3:33 PM,39.2,37.4,93,29.50,10.0,NE,5.8,-,0.01,Rain,Rain,50,2012-10-08 20:33:00
3:54 PM,39.2,37.4,93,29.50,10.0,ENE,3.5,-,0.01,,Light Drizzle,60,2012-10-08 20:54:00
4:13 PM,39.2,37.4,93,29.50,10.0,NE,3.5,-,N/A,,Drizzle,40,2012-10-08 21:13:00
4:33 PM,39.2,37.4,93,29.51,10.0,Calm,Calm,-,N/A,,Drizzle,0,2012-10-08 21:33:00
4:53 PM,39.2,37.4,93,29.51,10.0,Calm,Calm,-,N/A,,Light Drizzle,0,2012-10-08 21:53:00
5:13 PM,41.0,37.4,87,29.51,10.0,North,3.5,-,N/A,,Light Drizzle,350,2012-10-08 22:13:00
5:34 PM,41.0,37.4,87,29.52,10.0,NNW,5.8,-,N/A,Rain,Light Rain,330,2012-10-08 22:34:00
5:53 PM,41.0,37.4,87,29.53,10.0,NW,6.9,-,N/A,,Overcast,310,2012-10-08 22:53:00
6:13 PM,41.0,37.4,87,29.53,10.0,WNW,8.1,-,N/A,Rain,Light Rain,300,2012-10-08 23:13:00
7:13 PM,39.2,37.4,93,29.54,10.0,West,5.8,-,N/A,,Overcast,270,2012-10-09 00:13:00
7:34 PM,39.2,37.4,93,29.54,10.0,West,8.1,-,N/A,,Overcast,260,2012-10-09 00:34:00
7:54 PM,39.2,37.4,93,29.55,10.0,West,9.2,-,N/A,,Overcast,280,2012-10-09 00:54:00
8:13 PM,39.2,37.4,93,29.55,10.0,West,8.1,-,N/A,,Overcast,280,2012-10-09 01:13:00
8:34 PM,39.2,37.4,93,29.55,7.0,WNW,8.1,-,0.01,,Overcast,290,2012-10-09 01:34:00
8:54 PM,39.2,37.4,93,29.55,10.0,WNW,8.1,-,0.01,,Overcast,290,2012-10-09 01:54:00
9:13 PM,39.2,37.4,93,29.55,10.0,NW,8.1,-,N/A,,Overcast,320,2012-10-09 02:13:00
9:34 PM,39.2,37.4,93,29.55,10.0,North,4.6,-,N/A,,Overcast,350,2012-10-09 02:34:00
9:54 PM,39.2,37.4,93,29.55,10.0,North,5.8,-,N/A,,Overcast,360,2012-10-09 02:54:00
10:13 PM,39.2,37.4,93,29.55,10.0,North,5.8,-,N/A,,Overcast,360,2012-10-09 03:13:00
10:53 PM,39.2,37.4,93,29.55,10.0,West,5.8,-,N/A,,Drizzle,260,2012-10-09 03:53:00
11:13 PM,39.2,37.4,93,29.54,10.0,West,4.6,-,0.01,Rain,Rain,270,2012-10-09 04:13:00
11:34 PM,39.2,37.4,93,29.55,10.0,West,5.8,-,0.02,Rain,Light Rain,270,2012-10-09 04:34:00
11:53 PM,39.2,37.4,93,29.54,10.0,West,5.8,-,0.04,Rain,Light Rain,280,2012-10-09 04:53:00